Flugplatz Bad Sobernheim-Domberg

Für EDRS sind keine METAR/TAF Berichte vorhanden.
Es werden die Flugwettermeldungen vom Flugplatz Frankfurt-Hahn in 33 km Entfernung angezeigt.

Bericht für EDFH

vom 07.08. um 17:20 UTC

Wind 4 kt aus 100°

Sichtweite 10 km oder mehr

gute Sicht, keine Wolken < 5000 ft, keine CB, keine Wettererscheinungen (CAVOK)

Temperatur 30.0°C

Taupunkt 12.0°C

Luftfeuchtigkeit 33%

Luftdruck 1020 hPa

EDFH 071720Z 10004KT 040V180 CAVOK 30/12 Q1020

Prognose für EDFH

vom 07.08. um 17:00 UTC

Zwischen 18:00 UTC und 18:00 UTC

Wind 4 kt aus 100°

Sichtweite 10 km oder mehr

keine signifikanten Wettererscheinungen

keine Wolken


Am 08.08. zwischen 10:00 UTC und 15:00 UTC zeitweise

Wind 8 kt aus 160°

TAF EDFH 071700Z 0718/0818 10004KT CAVOK TEMPO 0810/0815 16008KT
Impressum